Theta_e
317 317 316 316 316 315 315 314 313 313 312 312 311 310 310 310 309 309 309 309 309 310 311 310 310 309 305 296 295 308 310 309 307 304 303 300 296 295 292 298 300 300 301 305 307 308 305
317 316 316 316 315 315 314 314 313 313 312 311 311 310 309 310 310 309 309 309 309 310 310 309 310 309 300 289 305 309 307 306 303 301 300 301 296 299 297 299 298 301 302 303 306 306 305
317 317 316 316 315 314 315 314 313 312 312 311 310 309 309 310 310 308 307 307 308 310 310 309 309 306 298 293 304 306 305 304 304 301 298 302 301 298 298 298 302 302 298 302 304 305 302
317 316 316 316 315 315 314 314 313 312 312 311 310 309 308 308 309 307 307 307 308 310 311 309 309 303 294 304 302 304 305 303 305 304 303 302 301 299 298 300 300 296 298 293 301 303 301
317 316 316 315 315 315 314 314 313 312 312 310 309 307 307 308 307 307 306 307 308 310 309 309 300 294 290 306 297 301 305 300 302 303 303 304 300 295 296 294 291 288 289 292 296 303 301
316 316 316 315 315 314 314 313 313 312 311 310 308 306 306 306 306 306 307 308 309 303 302 302 299 290 294 291 297 299 304 303 299 298 297 296 294 287 290 291 284 285 288 292 292 298 299
315 315 315 315 314 314 314 313 312 312 311 308 307 305 305 305 305 306 305 300 292 291 293 289 290 290 292 297 300 299 301 300 298 295 288 291 288 278 286 292 293 292 290 291 294 298 296
314 315 314 314 314 313 313 313 312 311 310 308 305 304 304 303 303 304 299 293 293 294 287 294 293 293 296 296 291 295 300 293 290 287 290 288 283 290 293 294 292 290 290 290 295 297 296
313 314 314 314 313 313 313 312 312 311 310 308 304 304 304 305 303 299 295 294 300 298 287 290 293 292 292 294 290 291 296 294 286 286 288 285 289 294 293 291 290 290 287 288 291 295 297
312 312 313 313 313 312 312 312 312 311 309 308 303 303 303 305 298 295 292 299 300 298 285 285 287 291 293 293 288 298 299 293 289 289 290 289 294 292 291 291 291 288 293 291 292 291 287
311 311 311 312 312 312 312 312 311 311 308 308 301 301 303 304 294 293 296 298 298 292 268 284 286 297 294 289 292 294 300 295 289 290 290 287 290 291 291 292 295 292 296 293 293 292 290
311 311 311 311 311 311 311 311 311 310 308 306 300 301 299 298 295 295 298 296 293 277 268 280 287 286 288 290 293 294 295 296 295 293 293 291 296 295 294 297 297 298 295 294 293 292 283
310 310 310 310 310 310 310 311 312 310 307 306 302 299 296 296 292 296 297 290 278 272 285 280 280 284 283 281 287 291 290 285 285 279 278 289 291 296 297 293 295 295 291 283 281 281 281
310 310 309 309 309 309 309 310 310 310 307 304 304 299 296 294 296 296 292 285 272 278 278 284 284 284 280 283 285 288 285 282 286 285 281 283 283 292 295 291 289 291 288 281 273 277 279
310 309 309 309 309 308 308 309 310 311 308 303 304 293 293 292 297 295 288 280 279 278 280 279 282 281 283 284 282 285 282 284 285 284 281 281 285 293 292 292 294 289 286 290 283 281 279
309 309 309 309 309 308 308 308 309 310 309 301 295 291 290 294 295 292 285 280 278 282 281 281 279 280 277 279 280 278 280 284 281 287 288 287 283 290 291 291 291 290 292 282 282 276 277
309 309 309 309 309 308 308 308 307 309 309 298 290 287 293 295 293 287 281 279 280 283 283 279 278 277 277 276 279 281 279 284 285 285 287 287 285 284 288 286 285 286 285 286 285 283 277
309 309 309 309 309 308 308 307 307 308 308 295 291 286 293 294 284 282 279 281 284 281 283 281 280 279 278 279 278 278 281 284 288 287 283 288 284 281 284 289 289 287 285 285 280 279 280
310 309 309 309 309 309 308 307 307 306 307 293 289 289 295 294 282 276 280 280 282 280 280 280 279 281 281 278 277 282 284 287 288 287 283 286 284 277 280 286 287 285 286 287 285 284 280
309 309 309 308 309 309 308 307 306 306 305 296 289 283 286 285 284 282 279 279 279 282 281 281 280 280 278 277 279 280 282 286 287 287 289 288 285 283 279 281 286 283 285 286 285 279 279
309 309 309 309 308 308 308 307 306 305 305 297 287 282 282 281 281 279 281 279 279 278 281 281 279 279 278 275 278 278 281 283 286 287 287 286 281 285 286 287 287 285 286 285 284 283 281
310 310 309 309 309 308 308 308 306 304 303 290 286 285 282 277 278 281 279 278 279 280 279 278 278 281 279 276 278 276 278 279 278 282 282 282 278 283 282 287 287 285 286 286 286 285 285
310 310 310 309 309 309 309 308 306 304 299 289 287 286 288 283 280 280 281 281 279 280 281 282 281 280 278 279 281 280 280 279 279 277 278 279 281 279 277 284 282 280 284 285 285 286 286
311 311 310 310 309 309 309 308 306 302 297 291 289 288 285 278 283 282 282 282 280 280 279 280 280 279 281 282 282 280 279 279 279 279 281 281 281 282 279 279 272 284 284 286 287 289 287
311 311 311 310 310 309 309 308 307 304 300 291 288 286 284 277 283 282 281 280 280 280 279 280 280 281 282 281 279 276 276 277 277 279 280 281 281 280 279 277 279 284 284 283 282 284 289
312 311 311 310 310 309 309 308 308 306 302 290 289 289 286 281 280 284 279 279 276 275 274 277 280 281 280 281 276 269 272 274 272 274 280 280 281 277 279 276 272 281 282 284 284 280 284
312 312 311 311 310 309 309 308 308 307 304 291 289 289 287 282 284 283 277 277 279 276 274 273 274 275 278 271 270 270 271 274 271 270 272 275 275 273 276 276 274 281 283 284 275 280 281
310 312 311 311 310 310 309 309 308 307 305 294 289 290 288 284 284 284 285 279 277 276 275 275 274 272 270 269 270 272 270 271 269 270 274 274 273 271 274 274 270 282 282 280 281 280 281
304 305 305 308 310 310 310 309 309 308 307 299 289 291 289 284 283 286 287 287 285 284 281 275 276 273 276 273 273 274 271 265 266 267 274 271 277 275 278 276 282 282 282 283 281 281 280
Wind_Speed
20 20 20 20 19 18 17 17 15 13 12 12 11 10 10 9 8 8 8 7 5 6 7 6 3 5 4 3 2 2 8 7 3 6 7 9 7 6 5 9 2 5 15 10 16 9 8
21 21 21 21 20 19 18 17 15 13 12 11 11 10 9 9 8 8 6 5 5 6 5 4 3 4 3 0 4 2 5 5 2 3 4 7 5 4 3 2 8 2 2 17 4 7 8
21 21 21 21 21 20 19 18 16 14 12 11 10 10 9 8 8 6 5 4 5 6 5 3 1 3 3 1 3 4 6 5 2 1 4 3 3 6 0 4 5 3 3 10 6 5 7
21 22 22 22 22 21 20 18 16 14 12 11 11 10 9 8 7 6 5 3 3 4 5 2 2 3 2 1 3 4 5 5 3 3 3 6 4 3 4 7 4 2 3 11 8 6 8
20 22 22 22 22 22 21 19 17 14 12 11 11 10 9 6 4 7 3 1 0 4 4 5 2 2 3 3 7 7 4 4 4 1 5 5 4 4 2 3 6 4 9 8 4 12 11
21 21 22 22 23 22 22 20 18 16 13 11 10 10 7 5 6 4 1 0 7 8 8 5 6 2 3 8 9 9 5 5 3 1 5 4 3 3 2 4 7 5 7 9 7 13 7
20 21 22 23 23 23 22 21 19 16 14 13 11 10 5 3 4 3 4 3 4 6 8 4 5 6 7 9 6 3 5 2 2 3 3 2 5 6 4 6 7 12 6 6 13 12 10
19 20 21 22 22 23 23 22 20 16 13 12 12 9 5 3 3 1 2 2 2 5 6 1 4 4 7 2 5 7 12 3 3 3 5 3 7 6 4 6 13 13 9 8 4 18 5
19 20 21 22 23 23 23 22 21 17 13 11 13 7 6 3 3 3 3 2 2 1 3 1 2 5 7 4 3 6 8 6 2 4 7 7 11 9 6 9 12 4 4 3 10 15 2
19 19 20 20 21 22 23 22 21 18 12 8 11 8 2 1 3 2 2 1 3 2 2 7 5 4 3 4 2 1 2 2 4 16 15 9 7 7 7 13 12 5 12 14 14 5 4
19 19 20 21 21 22 22 24 24 21 14 8 5 5 4 1 2 3 4 1 2 5 7 7 6 2 5 1 6 5 1 3 4 2 2 4 5 6 6 10 7 6 15 13 5 5 2
19 20 20 21 22 21 22 23 24 22 18 7 1 7 1 3 3 1 3 2 4 7 3 5 3 6 6 1 3 5 2 1 3 6 10 5 3 3 3 6 3 14 10 6 6 2 3
18 20 21 22 22 22 23 24 24 24 18 7 5 5 2 2 1 2 2 4 6 8 1 6 3 4 4 5 8 5 5 6 5 6 5 4 2 2 1 4 2 16 13 4 3 2 3
18 18 20 22 23 23 23 22 23 25 20 7 6 4 3 1 3 3 2 3 8 4 4 1 3 6 1 4 3 5 3 5 7 5 4 2 3 5 2 2 6 9 8 5 8 8 5
17 19 19 20 22 23 24 24 23 23 20 7 2 3 2 3 4 2 3 4 6 5 3 1 3 2 1 1 3 5 3 1 1 1 5 4 1 3 5 1 4 6 6 5 8 1 5
15 17 18 20 21 22 23 24 23 22 22 3 1 1 3 5 5 3 4 4 3 1 1 2 3 3 2 5 4 4 1 4 2 1 3 3 3 7 4 2 5 6 3 2 1 8 6
16 17 17 18 20 21 23 23 24 24 22 2 2 2 1 3 2 4 3 2 2 1 1 0 1 1 2 2 0 2 3 3 2 4 2 3 2 4 3 3 3 1 3 3 3 5 6
15 16 17 18 19 20 22 23 24 23 23 4 1 3 3 3 4 2 3 1 1 2 1 2 1 3 3 2 2 3 3 4 2 3 2 2 0 3 6 4 4 3 2 2 5 3 2
14 14 15 16 17 18 20 22 22 22 19 3 2 3 1 4 1 1 1 2 1 2 3 3 3 3 1 2 0 4 4 3 1 0 1 5 2 4 7 6 1 4 4 5 3 2 5
13 13 14 13 13 14 16 18 21 21 21 2 2 3 4 4 1 3 5 2 2 2 1 2 1 2 1 2 3 3 2 2 3 0 1 1 3 3 7 5 3 5 5 4 5 3 4
16 15 13 13 14 14 13 15 19 21 23 3 3 2 2 4 3 2 2 5 3 4 2 3 2 5 4 2 2 4 2 2 2 2 1 1 3 3 4 4 1 3 9 9 10 6 7
18 18 16 15 16 14 11 11 13 17 20 4 1 1 1 1 1 2 1 5 7 3 6 4 4 3 3 5 4 3 2 1 0 4 1 2 3 2 4 6 7 6 7 7 12 7 10
19 18 18 17 17 16 10 8 8 10 9 2 0 1 3 3 1 1 4 4 5 5 3 2 5 3 4 6 2 2 1 1 2 2 1 2 2 2 4 2 4 7 13 11 5 8 9
19 18 19 18 16 15 11 10 7 2 6 2 2 2 3 4 2 5 4 5 6 5 5 2 4 4 1 3 2 2 2 4 5 5 4 2 2 1 2 3 5 3 1 3 16 16 10
21 20 19 19 18 16 15 13 11 6 4 2 1 3 2 3 4 3 4 3 3 2 3 4 3 1 3 3 1 2 2 3 4 4 5 3 2 3 4 4 7 8 4 6 8 11 12
22 21 20 20 19 19 17 16 14 12 10 3 3 2 2 4 6 4 4 4 5 4 2 2 2 2 2 2 2 5 5 4 2 1 1 4 1 2 2 4 8 3 2 2 1 11 3
22 22 21 21 21 20 19 18 17 16 15 5 3 5 3 3 5 6 5 7 6 2 3 2 3 1 2 2 2 4 4 1 4 7 6 3 2 7 8 5 8 6 1 3 6 6 4
17 20 21 21 21 22 22 21 20 19 19 8 3 6 5 3 5 7 7 6 2 2 5 4 5 2 2 2 4 4 3 4 2 4 7 7 8 5 3 4 10 6 3 6 4 3 3
18 19 19 17 21 21 22 22 22 22 22 16 3 3 3 3 5 2 4 3 7 7 6 3 3 5 6 3 2 2 2 2 4 4 3 3 7 6 10 8 3 5 4 2 4 3 3
Wind_Direction
17 13 10 8 5 5 357 359 359 356 352 354 356 349 346 340 337 341 341 333 334 345 348 335 325 335 349 258 48 206 320 319 346 314 211 192 168 180 292 203 231 153 189 253 259 299 306
15 14 13 11 8 5 2 1 359 353 350 356 358 351 342 333 337 336 344 341 350 354 326 323 318 336 263 229 287 7 296 296 3 322 309 178 184 161 260 199 196 50 228 227 262 285 270
15 12 12 11 10 7 3 2 360 353 350 353 352 350 343 332 335 329 341 334 1 342 339 316 322 271 309 211 324 299 284 310 170 85 314 220 125 200 52 124 127 6 215 246 236 269 259
11 11 11 12 11 8 4 2 1 353 352 353 351 348 339 329 333 322 330 328 12 329 353 313 273 293 280 168 303 348 357 317 167 81 281 80 82 82 109 288 94 48 277 176 207 349 266
10 9 10 10 10 8 5 4 1 355 354 355 354 351 345 345 338 319 314 164 336 337 343 306 355 357 305 167 350 320 307 308 130 65 121 105 66 45 39 259 105 16 176 157 197 208 245
6 7 6 8 10 9 6 4 3 354 353 356 353 355 346 353 333 316 170 222 72 24 357 17 14 18 40 330 317 298 316 351 102 168 81 47 84 97 21 235 172 142 126 145 197 223 199
2 2 3 4 6 6 6 4 4 356 352 358 355 347 338 12 339 301 64 60 8 11 30 79 324 292 307 328 294 311 354 23 168 225 99 139 166 172 208 53 112 103 121 124 188 233 149
359 360 1 0 2 4 4 4 3 357 348 358 354 344 333 42 55 7 29 51 126 176 94 41 315 301 292 324 294 345 360 63 12 110 107 135 117 136 70 79 94 77 124 201 319 276 141
359 357 358 359 358 1 1 2 1 358 345 349 359 344 314 241 34 56 80 95 348 306 79 230 268 283 298 333 343 341 357 326 113 130 172 127 138 123 153 159 96 73 100 149 214 247 138
356 355 355 357 357 357 358 359 360 0 344 334 4 350 352 141 57 160 65 115 339 19 70 332 313 289 283 278 292 257 259 2 341 105 92 76 162 164 132 154 146 133 199 213 226 256 177
351 352 352 353 355 356 356 357 359 357 348 316 21 357 357 19 224 81 155 131 6 63 49 310 303 290 282 264 341 6 93 295 307 241 120 143 172 126 158 157 186 160 159 199 243 253 79
346 348 350 352 352 354 355 356 356 359 354 313 286 21 52 341 65 121 135 54 60 48 327 332 285 316 317 344 327 265 139 169 264 38 76 106 178 156 176 133 167 124 114 242 293 359 328
343 344 346 349 352 352 353 354 354 356 359 329 218 350 55 66 197 205 125 66 32 94 261 301 283 323 323 327 342 342 12 26 33 57 28 55 151 354 279 121 50 143 139 147 141 209 202
337 343 345 345 348 350 351 352 355 353 357 334 226 297 328 75 143 127 55 68 68 232 215 29 290 298 220 12 307 344 37 25 1 41 75 43 122 192 226 192 151 148 154 159 158 173 193
331 336 341 343 344 348 349 351 352 353 355 341 139 291 269 163 144 86 74 55 193 198 182 289 301 301 278 37 122 354 33 113 249 306 136 110 346 310 227 173 164 196 212 162 108 148 80
324 329 333 337 341 344 347 350 350 352 352 331 360 288 272 147 136 105 74 167 214 113 140 186 161 140 213 319 32 56 113 207 236 256 28 226 122 225 226 144 243 168 202 86 350 151 182
316 322 327 331 336 340 343 348 350 349 350 31 50 350 205 137 102 57 114 157 143 75 356 271 315 231 214 202 53 335 297 295 135 286 248 226 179 240 89 183 195 159 225 254 141 138 153
310 315 321 326 330 335 340 346 349 352 349 70 70 324 188 137 43 35 100 108 50 154 167 262 275 192 209 171 214 200 239 234 318 325 335 53 328 151 201 236 166 154 199 215 122 273 207
295 301 314 322 327 330 337 342 347 351 3 327 326 254 144 130 274 79 218 88 322 147 209 196 247 233 174 258 318 182 191 152 42 28 278 348 295 84 359 326 178 192 202 180 136 118 249
280 289 296 302 310 318 328 337 339 343 350 64 14 340 331 59 44 123 144 205 201 314 235 230 277 26 327 277 191 308 207 153 171 12 300 5 298 220 200 212 170 191 211 179 153 179 231
276 276 278 291 293 300 316 333 337 341 344 98 39 274 177 313 351 95 338 143 149 213 249 216 266 224 201 280 219 229 235 143 162 347 117 226 258 322 281 295 241 266 224 203 212 194 199
267 270 273 271 275 283 302 324 331 343 342 76 350 116 299 108 316 318 106 229 180 199 154 239 233 183 174 208 195 247 56 55 8 336 117 337 247 17 277 256 228 254 259 251 230 218 243
264 263 264 268 273 278 283 293 310 352 10 55 260 309 125 160 187 70 229 194 208 147 222 192 184 161 222 234 200 164 161 254 241 173 264 162 202 168 241 360 348 278 223 218 214 208 200
260 258 259 261 265 269 266 260 271 338 85 176 233 151 104 268 183 214 212 190 192 201 167 178 163 167 210 99 69 23 291 262 256 245 222 225 201 137 248 43 253 246 351 237 221 230 205
256 256 255 255 259 256 252 252 251 224 168 184 203 152 158 234 197 237 197 197 154 106 174 186 199 165 138 137 132 329 280 315 244 223 202 228 296 226 215 210 303 299 195 172 175 257 220
255 256 254 252 251 251 247 243 233 220 190 146 216 160 151 122 249 161 149 178 178 186 348 205 92 86 122 211 130 187 223 198 211 127 101 186 321 295 223 221 219 266 28 332 211 277 32
261 258 254 251 248 247 243 240 232 217 196 159 224 169 121 170 244 148 186 182 160 126 134 147 169 95 57 136 167 196 248 178 191 174 166 162 178 225 243 269 289 262 320 316 102 259 350
316 270 261 255 248 243 240 235 230 216 201 160 210 182 155 186 269 197 177 149 112 147 155 185 81 299 61 155 162 235 175 229 99 202 174 169 166 198 178 239 266 156 134 172 226 318 336
326 308 353 324 257 249 245 239 229 217 204 175 186 172 130 161 237 287 236 200 186 188 139 188 181 156 182 123 224 113 249 60 175 255 295 248 195 182 194 213 238 217 213 219 179 216 256